Volver al catálogo

CZ-6A DEB

ActivoPO
NORAD 61409·DEBRIS·🇨🇳 China

Lanzado Aug 6, 2024 desde Taiyuan Satellite Launch Center

Loading…

Próximos Pases (próximas 24 horas)

TLE

ActualizadoSource: Space-Track

Época: Sep 14, 2026, 10:38 UTC

1 61409U 24140YA  26257.44364370  .00006707  00000-0  72698-3 0  9999
2 61409  89.0245 259.5941 0089674 215.3309 144.1955 14.85135901108221

Sigue CZ-6A DEB en tiempo real con AllMySat

Download on the App Store